• Processing (Info)

  • MPEC 2014-A16 : 2006 CY10

    The following Minor Planet Electronic Circular may be linked-to from your own Web pages, but must not otherwise be redistributed electronically.

    A form allowing access to any MPEC is at the bottom of this page.


    Read MPEC 2014-A15 Read MPEC 2014-A17


    M.P.E.C. 2014-A16                                Issued 2014 Jan. 3, 18:57 UT
    
         The Minor Planet Electronic Circulars contain information on unusual
             minor planets and routine data on comets.  They are published
       on behalf of Commission 20 of the International Astronomical Union by the
              Minor Planet Center, Smithsonian Astrophysical Observatory,
                              Cambridge, MA 02138, U.S.A.
    
                 Prepared using the Tamkin Foundation Computer Network
    
                                  MPC@CFA.HARVARD.EDU
                URL http://www.minorplanetcenter.net/    ISSN 1523-6714
    
                                       2006 CY10
    
                               Revision to MPEC 2006-C57
    
    Additional Observations:
         K06C10Y 2C2013 12 25.39496304 05 24.967+30 05 26.65         23.3 RtEA016568
         K06C10Y 2C2013 12 25.39961904 05 24.503+30 05 25.74         23.1 RtEA016568
         K06C10Y 2C2013 12 25.41852804 05 22.640+30 05 22.28         23.1 RtEA016568
         K06C10Y 2C2014 01 03.29541003 52 52.159+29 35 53.03         23.3 RtEA016568
         K06C10Y 2C2014 01 03.29930703 52 51.861+29 35 52.30         23.2 RtEA016568
         K06C10Y 2C2014 01 03.30327903 52 51.562+29 35 51.59         23.5 RtEA016568
    
    Observer details:
    568 Mauna Kea.  Observer D. J. Tholen.  2.24-m University of Hawaii reflector.
    
    First and last observations above in comparison with prediction:
    Residuals in seconds of arc (or two decimals in degrees), reference and Delta-T
    131225 568 0.14+ 0.06+    140103 568 0.13+ 0.06+    MPO102284   -0.33 day
    
    Orbital elements:
    2006 CY10                                           PHA, Earth MOID = 0.0084 AU
    Epoch 2013 Nov. 4.0 TT = JDT 2456600.5                  MPC
    M 277.17747              (2000.0)            P               Q
    n   0.35934933     Peri.  167.30305     -0.93962444     +0.33625184
    a   1.9594078      Node    32.56931     -0.32338871     -0.81174913
    e   0.4854216      Incl.    6.78143     -0.11191812     -0.47749141
    P   2.74           H   20.5           G   0.15           U   0
    Residuals in seconds of arc
    060209 699  0.4-  0.0     060218 932  0.1-  0.3-    060305 448  0.2+  0.0
    060209 699  0.2+  0.0     060218 932  0.1-  0.1-    060306 704  0.4-  1.4+
    060209 699  0.2-  0.7+    060218 932  0.1+  0.1-    060306 704  0.5-  1.0-
    060209 699  0.4-  0.1+    060218 932  0.1-  0.1-    060306 704 (0.3+  1.8+)
    060210 595  0.1-  0.4+    060218 F65  0.4+  0.1+    060306 704  0.0   0.4+
    060210 J95  0.1-  0.3-    060218 F65  0.1-  0.5+    060312 941  0.6+  0.9-
    060210 J95  0.2-  0.1+    060218 F65  0.6-  0.3+    060312 941  0.3-  0.1-
    060210 595  0.1-  0.0     060218 F65  0.0   0.2+    060312 941  0.1+  0.5+
    060210 J95  0.2-  0.0     060220 932  0.0   0.0     060312 941  0.3+  0.1+
    060211 A13  0.9+  0.3-    060220 932  0.3-  0.1-    060312 941  0.1+  0.1-
    060211 A13  1.2+  0.1-    060220 932  0.0   0.0     060312 H36  0.3-  1.0+
    060211 A13  1.2+  0.2-    060225 941  0.3+  0.1-    060312 H36 (2.0+  0.3+)
    060211 A13  1.3+  0.4-    060225 941  0.0   0.1-    060312 H36  0.1-  0.0
    060211 A13 (1.5+  0.3-)   060225 941  0.0   0.0     060324 734  0.6+  0.6-
    060211 A13  0.8+  0.3-    060225 941  0.2+  0.1+    060324 734 (0.1-  2.0-)
    060212 A13  1.2+  0.1+    060227 703  0.3-  0.2+    060607 E12  0.4-  0.3+
    060214 932  0.6-  0.0     060227 703  0.5+  0.2+    060607 E12  0.1-  0.0
    060214 932  0.2-  0.0     060227 703  0.1-  0.3+    131225 568  0.0   0.0
    060214 932  0.4-  0.1+    060228 734  0.0   0.4-    131225 568  0.0   0.1-
    060214 932  0.4-  0.0     060228 734  0.1-  0.1+    131225 568  0.0   0.0
    060214 932  0.1-  0.0     060228 734  0.3-  0.0     140103 568  0.0   0.1-
    060216 J95  0.1-  0.0     060305 448  0.2+  0.0     140103 568  0.0   0.0
    060216 J95  0.1+  0.1-    060305 448  0.2+  0.1+    140103 568  0.0   0.1+
    060216 J95  0.1-  0.0     060305 448  0.0   0.0
    
    Ephemeris:
    2006 CY10                a,e,i = 1.96, 0.49, 7                   q = 1.0083
    Date    TT    R. A. (2000) Decl.     Delta      r     Elong.  Phase     V
    2013 12 04    04 43 26.7 +30 31 26   1.1359  2.1160   171.7     3.9    22.8
    ...
    2013 12 19    04 16 10.9 +30 21 47   1.0841  2.0321   158.6    10.2    22.9
    ...
    2013 12 27    04 02 55.1 +30 00 31   1.0809  1.9857   148.2    15.1    23.0
    ...
    2014 01 02    03 54 28.8 +29 40 25   1.0881  1.9500   140.5    18.7    23.1
    2014 01 03    03 53 13.8 +29 36 54   1.0900  1.9440   139.3    19.3    23.1
    2014 01 04    03 52 01.7 +29 33 23   1.0921  1.9380   138.0    19.8    23.1
    ...
    2014 01 10    03 45 53.1 +29 12 30   1.1081  1.9015   130.7    23.1    23.2
    ...
    2014 01 18    03 40 39.7 +28 47 47   1.1369  1.8519   121.5    26.9    23.3
    ...
    2014 02 02    03 40 00.0 +28 20 17   1.2035  1.7561   106.3    32.6    23.5
    
    A. U. Tomatic                (C) Copyright 2014 MPC           M.P.E.C. 2014-A16
    

    Read MPEC 2014-A15 Read MPEC 2014-A17


    MPEC number:

    Enter an MPEC number in one of the following forms:

    • 1997-B01 (the full form)
    • J97B01 (the packed version of the full form)
    • B01 (the abbreviated form)